• In Lithuania
  • List of Countries
  • For 7 days
  • Water Temperature
  • Satellite Maps
  • Weather Map
  • Weather Widgets
  • user-avatar
    Login

    Hourly Weather Lezhe

    Today, 23 October, Tuesday

    Time Temperature Precipitation Wind Pressure Humidity
    00:00 +13°C° 1.4 mm 4 mps 738 mmHg 82%
    01:00 +13°C° 1.4 mm 4 mps 738 mmHg 82%
    02:00 +12°C° 1.3 mm 4 mps 738 mmHg 82%
    03:00 +12°C° 1.3 mm 4 mps 738 mmHg 82%
    04:00 +12°C° 1.3 mm 5 mps 738 mmHg 82%
    05:00 +12°C° 0.5 mm 4 mps 738 mmHg 81%
    06:00 +12°C° 0.5 mm 4 mps 738 mmHg 80%
    07:00 +12°C° 0.5 mm 4 mps 738 mmHg 79%
    08:00 +13°C° 0.1 mm 4 mps 739 mmHg 76%
    09:00 +14°C° 0.1 mm 4 mps 739 mmHg 72%
    10:00 +15°C° 0.1 mm 4 mps 739 mmHg 68%
    11:00 +17°C° 0 mm 4 mps 739 mmHg 63%
    12:00 +18°C° 0 mm 4 mps 738 mmHg 59%
    13:00 +19°C° 0 mm 4 mps 738 mmHg 54%
    14:00 +19°C° 0 mm 3 mps 738 mmHg 55%
    15:00 +18°C° 0 mm 3 mps 738 mmHg 57%
    16:00 +18°C° 0 mm 3 mps 737 mmHg 58%
    17:00 +16°C° 0 mm 3 mps 738 mmHg 62%
    18:00 +14°C° 0 mm 3 mps 738 mmHg 67%
    19:00 +13°C° 0 mm 3 mps 738 mmHg 71%
    20:00 +12°C° 0 mm 3 mps 738 mmHg 72%
    21:00 +12°C° 0 mm 3 mps 738 mmHg 74%
    22:00 +11°C° 0 mm 3 mps 738 mmHg 75%
    23:00 +11°C° 0 mm 3 mps 738 mmHg 75%

    Tomorrow, 24 October, Wednesday

    Time Temperature Precipitation Wind Pressure Humidity
    00:00 +11°C° 0 mm 3 mps 737 mmHg 76%
    01:00 +11°C° 0 mm 3 mps 737 mmHg 76%
    02:00 +12°C° 0 mm 2 mps 737 mmHg 74%
    03:00 +12°C° 0 mm 2 mps 736 mmHg 73%
    04:00 +10°C° 0 mm 2 mps 736 mmHg 71%
    05:00 +12°C° 0 mm 2 mps 736 mmHg 68%
    06:00 +12°C° 0 mm 2 mps 736 mmHg 64%
    07:00 +13°C° 0 mm 1 mps 736 mmHg 60%
    08:00 +15°C° 0 mm 1 mps 735 mmHg 53%
    09:00 +19°C° 0 mm 1 mps 735 mmHg 45%
    10:00 +21°C° 0 mm 1 mps 735 mmHg 37%
    11:00 +20°C° 0 mm 2 mps 734 mmHg 38%
    12:00 +21°C° 0 mm 2 mps 734 mmHg 38%
    13:00 +21°C° 0 mm 3 mps 733 mmHg 39%
    14:00 +20°C° 0 mm 3 mps 733 mmHg 43%
    15:00 +20°C° 0 mm 3 mps 732 mmHg 48%
    16:00 +19°C° 0 mm 3 mps 732 mmHg 52%
    17:00 +18°C° 0 mm 3 mps 732 mmHg 55%
    18:00 +17°C° 0 mm 3 mps 733 mmHg 59%
    19:00 +16°C° 0 mm 2 mps 733 mmHg 62%
    20:00 +15°C° 0 mm 2 mps 734 mmHg 64%
    21:00 +14°C° 0 mm 3 mps 734 mmHg 66%
    22:00 +13°C° 0 mm 3 mps 735 mmHg 67%
    23:00 +13°C° 0 mm 3 mps 735 mmHg 69%

    Day after tomorrow, 25 October, Thursday

    Time Temperature Precipitation Wind Pressure Humidity
    00:00 +12°C° 0 mm 4 mps 736 mmHg 71%
    01:00 +11°C° 0 mm 4 mps 736 mmHg 72%
    02:00 +10°C° 0 mm 4 mps 737 mmHg 71%
    03:00 +8°C° 0 mm 4 mps 737 mmHg 69%
    04:00 +7°C° 0 mm 4 mps 737 mmHg 68%
    05:00 +7°C° 0 mm 4 mps 738 mmHg 64%
    06:00 +6°C° 0 mm 4 mps 738 mmHg 60%
    07:00 +6°C° 0 mm 4 mps 739 mmHg 56%
    08:00 +8°C° 0 mm 4 mps 739 mmHg 46%
    09:00 +11°C° 0 mm 4 mps 739 mmHg 36%
    10:00 +13°C° 0 mm 4 mps 739 mmHg 27%
    11:00 +14°C° 0 mm 3 mps 739 mmHg 26%
    12:00 +16°C° 0 mm 3 mps 739 mmHg 25%
    13:00 +17°C° 0 mm 3 mps 739 mmHg 25%
    14:00 +17°C° 0 mm 3 mps 738 mmHg 29%
    15:00 +16°C° 0 mm 3 mps 738 mmHg 34%
    16:00 +16°C° 0 mm 3 mps 738 mmHg 38%
    17:00 +14°C° 0 mm 3 mps 738 mmHg 42%
    18:00 +13°C° 0 mm 2 mps 738 mmHg 45%
    19:00 +12°C° 0 mm 2 mps 739 mmHg 49%
    20:00 +12°C° 0 mm 2 mps 739 mmHg 49%
    21:00 +12°C° 0 mm 2 mps 739 mmHg 49%
    22:00 +12°C° 0 mm 2 mps 739 mmHg 50%
    23:00 +12°C° 0 mm 2 mps 739 mmHg 49%

    26 October, Friday

    Time Temperature Precipitation Wind Pressure Humidity
    00:00 +11°C° 0 mm 1 mps 739 mmHg 49%
    01:00 +11°C° 0 mm 1 mps 739 mmHg 49%
    02:00 +11°C° 0 mm 1 mps 738 mmHg 49%
    03:00 +11°C° 0 mm 1 mps 738 mmHg 50%
    04:00 +11°C° 0 mm 1 mps 738 mmHg 50%
    05:00 +12°C° 0 mm 2 mps 739 mmHg 52%
    06:00 +12°C° 0 mm 2 mps 739 mmHg 54%
    07:00 +12°C° 0 mm 2 mps 739 mmHg 57%
    08:00 +15°C° 0 mm 2 mps 739 mmHg 53%
    09:00 +17°C° 0 mm 2 mps 739 mmHg 49%
    10:00 +19°C° 0 mm 2 mps 739 mmHg 45%
    11:00 +20°C° 0 mm 2 mps 739 mmHg 44%
    12:00 +20°C° 0 mm 2 mps 738 mmHg 43%
    13:00 +21°C° 0 mm 3 mps 738 mmHg 43%
    14:00 +20°C° 0 mm 2 mps 738 mmHg 45%
    15:00 +19°C° 0 mm 2 mps 738 mmHg 48%
    16:00 +19°C° 0 mm 2 mps 738 mmHg 51%
    17:00 +17°C° 0 mm 2 mps 738 mmHg 54%
    18:00 +16°C° 0 mm 2 mps 738 mmHg 57%
    19:00 +14°C° 0 mm 2 mps 738 mmHg 60%
    20:00 +14°C° 0 mm 2 mps 739 mmHg 61%
    21:00 +13°C° 0 mm 3 mps 739 mmHg 62%
    22:00 +13°C° 0 mm 3 mps 739 mmHg 62%
    23:00 +13°C° 0 mm 3 mps 739 mmHg 65%

    27 October, Saturday

    Time Temperature Precipitation Wind Pressure Humidity
    00:00 +13°C° 0 mm 3 mps 739 mmHg 68%
    01:00 +13°C° 0 mm 3 mps 739 mmHg 71%
    02:00 +13°C° 0 mm 3 mps 738 mmHg 71%
    03:00 +13°C° 0 mm 3 mps 738 mmHg 72%
    04:00 +13°C° 0 mm 3 mps 738 mmHg 73%
    05:00 +14°C° 0.1 mm 3 mps 738 mmHg 73%
    06:00 +14°C° 0.1 mm 4 mps 738 mmHg 73%
    07:00 +15°C° 0.1 mm 4 mps 737 mmHg 74%
    08:00 +17°C° 0.1 mm 4 mps 737 mmHg 72%
    09:00 +17°C° 0.1 mm 5 mps 737 mmHg 71%
    10:00 +19°C° 0.1 mm 5 mps 737 mmHg 70%
    11:00 +20°C° 0.4 mm 6 mps 737 mmHg 71%
    12:00 +20°C° 0.4 mm 7 mps 736 mmHg 72%
    13:00 +20°C° 0.4 mm 8 mps 736 mmHg 73%
    14:00 +20°C° 0.5 mm 8 mps 735 mmHg 75%
    15:00 +20°C° 0.5 mm 8 mps 735 mmHg 77%
    16:00 +20°C° 0.5 mm 8 mps 735 mmHg 79%
    17:00 +18°C° 0.4 mm 8 mps 735 mmHg 82%
    18:00 +17°C° 0.4 mm 8 mps 735 mmHg 85%
    19:00 +17°C° 0.4 mm 8 mps 735 mmHg 89%
    20:00 +17°C° 0.5 mm 8 mps 735 mmHg 88%
    21:00 +17°C° 0.5 mm 8 mps 734 mmHg 87%
    22:00 +17°C° 0.5 mm 8 mps 734 mmHg 86%
    23:00 +17°C° 1 mm 9 mps 734 mmHg 86%

    28 October, Sunday

    Time Temperature Precipitation Wind Pressure Humidity
    00:00 +17°C° 1 mm 9 mps 734 mmHg 86%
    01:00 +17°C° 1 mm 9 mps 734 mmHg 86%
    02:00 +16°C° 1 mm 9 mps 733 mmHg 86%
    03:00 +16°C° 1 mm 9 mps 733 mmHg 85%
    04:00 +16°C° 1 mm 9 mps 733 mmHg 85%
    05:00 +16°C° 1.7 mm 8 mps 733 mmHg 85%
    06:00 +16°C° 1.7 mm 8 mps 733 mmHg 84%
    07:00 +16°C° 1.7 mm 8 mps 733 mmHg 84%
    08:00 +16°C° 3.8 mm 8 mps 733 mmHg 85%
    09:00 +16°C° 3.8 mm 8 mps 734 mmHg 87%
    10:00 +16°C° 3.8 mm 8 mps 734 mmHg 88%
    11:00 +16°C° 6.6 mm 8 mps 734 mmHg 89%
    12:00 +16°C° 6.6 mm 7 mps 734 mmHg 89%
    13:00 +16°C° 6.6 mm 7 mps 733 mmHg 90%
    14:00 +16°C° 8.1 mm 7 mps 733 mmHg 91%
    15:00 +16°C° 8.1 mm 6 mps 733 mmHg 92%
    16:00 +16°C° 8.1 mm 6 mps 734 mmHg 93%
    17:00 +16°C° 5.8 mm 6 mps 734 mmHg 92%
    18:00 +16°C° 5.8 mm 6 mps 734 mmHg 92%
    19:00 +16°C° 5.8 mm 6 mps 734 mmHg 91%
    20:00 +16°C° 2.4 mm 6 mps 734 mmHg 90%
    21:00 +15°C° 2.4 mm 6 mps 734 mmHg 89%
    22:00 +15°C° 2.4 mm 6 mps 733 mmHg 89%
    23:00 +15°C° 2.5 mm 6 mps 733 mmHg 89%

    29 October, Monday

    Time Temperature Precipitation Wind Pressure Humidity
    00:00 +15°C° 2.5 mm 6 mps 733 mmHg 89%
    01:00 +15°C° 2.5 mm 6 mps 732 mmHg 90%
    02:00 +15°C° 2.1 mm 6 mps 732 mmHg 90%
    03:00 +15°C° 2.1 mm 6 mps 731 mmHg 90%
    04:00 +15°C° 2.1 mm 6 mps 731 mmHg 90%
    05:00 +15°C° 2.1 mm 6 mps 731 mmHg 90%
    06:00 +15°C° 2.1 mm 6 mps 730 mmHg 90%
    07:00 +15°C° 2.1 mm 5 mps 730 mmHg 89%
    08:00 +15°C° 1 mm 5 mps 730 mmHg 86%
    09:00 +16°C° 1 mm 5 mps 730 mmHg 83%
    10:00 +16°C° 1 mm 5 mps 730 mmHg 80%
    11:00 +16°C° 2.2 mm 5 mps 729 mmHg 80%
    12:00 +16°C° 2.2 mm 6 mps 729 mmHg 81%
    13:00 +16°C° 2.2 mm 6 mps 729 mmHg 82%
    14:00 +16°C° 1.1 mm 6 mps 729 mmHg 81%
    15:00 +16°C° 1.1 mm 6 mps 728 mmHg 81%
    16:00 +17°C° 1.1 mm 5 mps 728 mmHg 80%
    17:00 +17°C° 1.1 mm 6 mps 728 mmHg 80%
    18:00 +16°C° 1.1 mm 6 mps 728 mmHg 80%
    19:00 +16°C° 1.1 mm 6 mps 729 mmHg 81%
    20:00 +16°C° 0.8 mm 6 mps 729 mmHg 81%
    21:00 +16°C° 0.8 mm 5 mps 729 mmHg 81%
    22:00 +16°C° 0.8 mm 5 mps 729 mmHg 82%
    23:00 +16°C° 1 mm 5 mps 729 mmHg 83%
    Show more